Tracking 35331 objects as of 16-Sep-2026
HD Live streaming from Space Station
objects crossing your sky now

STARLINK-2121

Track STARLINK-2121 now!
10-day predictions
STARLINK-2121 is classified as:


NORAD ID: 47399
Int'l Code: 2021-005BC
Launch date: January 20, 2021
Source: United States (US)
Launch site: AIR FORCE EASTERN TEST RANGE (AFETR)
Your satellite tracking list
Your tracking list is empty




NASA's NSSDC Master Catalog

Two Line Element Set (TLE):
1 47399U 21005BC  26258.34327001  .00004082  00000-0  14325-3 0  9995
2 47399  53.1615 234.0852 0001544  94.0241 266.0937 15.31697928312452
Source of the keplerian elements: AFSPC